Flag for Canada Weather past 2 weeks in Yorkton, Saskatchewan, Canada

Now
68 °F

Light rain. Fog.


Feels Like: 68 °F
Forecast: 59 / 76 °F
Wind: 7 mph from South

Location: Yorkton

Current Time: Jul 4, 2015 at 9:40:54 AM

Latest Report: Jul 4, 2015 at 9:00 AM


Visibility: 1 mi

Pressure: 29.75 "Hg (28.05 "Hg at 505m altitude)

Humidity: 83%

Dew point: 63 °F

Location of YorktonLocation

Historic Weather in Yorkton — Graph

°F

Yorkton temperature yesterday

Maximum temperature yesterday: 82 °F (at 3:00 PM)
Minimum temperature yesterday: 57 °F (at 6:00 AM)
Average temperature yesterday: 71 °F

Past Weeks' High & Low Weather Summary

 TemperatureHumidityPressure
High84 °F (Jun 26, 2:00 PM)100% (Jun 19, 11:47 PM)30.08 "Hg (Jun 19, 11:47 PM)
Low46 °F (Jun 20, 4:00 AM)31% (Jun 26, 2:00 PM)29.73 "Hg (Jul 4, 3:00 AM)
Average66 °F73%29.93 "Hg
* Reported Jun 19 8:00 AM — Jul 4 8:00 AM, Yorkton, Weather by CustomWeather, © 2015

Note: Actual official high and low records may vary slightly from our data, if they occured in-between our weather recording intervals... More about our weather records

Advertising

Yorkton weather history for previous 24 hours

 ConditionsComfort  
Time TempWeatherWind HumidityBarometerVisibility
8:00 AM
Sat, Jul 4
68 °FMostly cloudy.2 mph83%29.74 "Hg2 mi
7:00 AM66 °FLight rain. Fog.3 mph94%29.75 "Hg2 mi
6:55 AM68 °FLight rain. Fog.3 mph88%29.74 "Hg2 mi
6:00 AM66 °FLight rain. Fog.7 mph88%29.76 "Hg1 mi
5:51 AM68 °FLight rain. Mostly cloudy.7 mph83%29.75 "Hg1 mi
5:00 AM64 °FFog.9 mph94%29.74 "Hg1 mi
4:00 AM66 °FFog.6 mph88%29.73 "Hg1 mi
3:00 AM64 °FFog.7 mph94%29.73 "Hg1 mi
2:00 AM66 °FFog.9 mph88%29.74 "Hg1 mi
1:46 AM66 °FFog.9 mph88%29.75 "Hg1 mi
1:00 AM68 °FOvercast.8 mph83%29.77 "Hg2 mi
12:00 AM66 °FFog.6 mph88%29.78 "Hg2 mi
11:02 PM
Fri, Jul 3
70 °FOvercast.7 mph78%29.78 "Hg3 mi
10:00 PM72 °FOvercast.9 mph73%29.79 "Hg3 mi
9:00 PM73 °FOvercast.8 mph69%29.80 "Hg3 mi
8:48 PM75 °FOvercast.7 mph65%29.80 "Hg3 mi
8:00 PM77 °FOvercast.7 mph61%29.79 "Hg3 mi
7:00 PM79 °FOvercast.6 mph58%29.81 "Hg3 mi
6:00 PM81 °FPartly sunny.9 mph48%29.83 "Hg3 mi
5:00 PM82 °FPartly sunny.13 mph45%29.83 "Hg3 mi
4:00 PM82 °FPartly sunny.8 mph45%29.85 "Hg3 mi
3:00 PM82 °FOvercast.8 mph45%29.88 "Hg2 mi
2:00 PM81 °FOvercast.8 mph48%29.89 "Hg2 mi
1:00 PM79 °FOvercast.9 mph54%29.92 "Hg2 mi
12:00 PM79 °FOvercast.10 mph54%29.93 "Hg1 mi
11:00 AM77 °FOvercast.9 mph65%29.95 "Hg1 mi
10:00 AM75 °FOvercast.8 mph65%29.95 "Hg2 mi
9:00 AM72 °FOvercast.5 mph73%29.97 "Hg2 mi
Weather by CustomWeather, © 2015

See weather overviewHow to use our weather pages